When you browse on this site, cookies collect data to enhance your experience and personalize the content and advertising you see.
Visit our Privacy Policy to learn more. By continuing to use the site, you agree to this use of cookies and data.
  • En España
  • Lista de países
  • Para 7 días
  • Temperatura del agua
  • Mapa Satelital
  • El tiempo en el mapa
  • Informadores
  • user-avatar
    Iniciar sesión

    Tiempo cada hora Chervonyi Kyiv

    Hoy, 23 Mayo, Jueves

    Tiempo Temperatura Precipitaciones Viento Presión Humedad
    00:00 +18°C° 0 mm 1 mps 746 mmHg 69%
    01:00 +18°C° 0 mm 1 mps 746 mmHg 70%
    02:00 +16°C° 0 mm 1 mps 746 mmHg 71%
    03:00 +16°C° 0 mm 1 mps 746 mmHg 72%
    04:00 +15°C° 0 mm 0 mps 746 mmHg 74%
    05:00 +15°C° 0 mm 0 mps 746 mmHg 76%
    06:00 +17°C° 0 mm 0 mps 746 mmHg 70%
    07:00 +20°C° 0 mm 1 mps 746 mmHg 64%
    08:00 +22°C° 0 mm 1 mps 746 mmHg 59%
    09:00 +23°C° 0 mm 1 mps 746 mmHg 54%
    10:00 +24°C° 0 mm 2 mps 746 mmHg 49%
    11:00 +25°C° 0 mm 2 mps 746 mmHg 45%
    12:00 +26°C° 0 mm 2 mps 746 mmHg 43%
    13:00 +26°C° 0 mm 2 mps 746 mmHg 42%
    14:00 +26°C° 0 mm 2 mps 746 mmHg 41%
    15:00 +26°C° 0 mm 2 mps 746 mmHg 42%
    16:00 +26°C° 0 mm 1 mps 746 mmHg 43%
    17:00 +26°C° 0 mm 1 mps 746 mmHg 44%
    18:00 +24°C° 0 mm 1 mps 746 mmHg 49%
    19:00 +22°C° 0 mm 1 mps 746 mmHg 53%
    20:00 +21°C° 0 mm 1 mps 746 mmHg 57%
    21:00 +20°C° 0 mm 1 mps 746 mmHg 61%
    22:00 +19°C° 0 mm 1 mps 746 mmHg 65%
    23:00 +19°C° 0 mm 1 mps 746 mmHg 69%

    Mañana, 24 Mayo, Viernes

    Tiempo Temperatura Precipitaciones Viento Presión Humedad
    00:00 +18°C° 0 mm 1 mps 746 mmHg 71%
    01:00 +18°C° 0 mm 1 mps 746 mmHg 73%
    02:00 +16°C° 0 mm 1 mps 746 mmHg 75%
    03:00 +16°C° 0 mm 1 mps 746 mmHg 77%
    04:00 +16°C° 0 mm 1 mps 746 mmHg 78%
    05:00 +16°C° 0 mm 1 mps 746 mmHg 79%
    06:00 +19°C° 0 mm 1 mps 746 mmHg 74%
    07:00 +21°C° 0 mm 1 mps 746 mmHg 68%
    08:00 +23°C° 0 mm 2 mps 746 mmHg 63%
    09:00 +24°C° 0.2 mm 2 mps 746 mmHg 57%
    10:00 +25°C° 0.2 mm 2 mps 746 mmHg 51%
    11:00 +27°C° 0.2 mm 2 mps 746 mmHg 45%
    12:00 +27°C° 0 mm 3 mps 746 mmHg 47%
    13:00 +26°C° 0 mm 3 mps 746 mmHg 49%
    14:00 +26°C° 0 mm 3 mps 746 mmHg 50%
    15:00 +26°C° 0 mm 3 mps 746 mmHg 52%
    16:00 +26°C° 0 mm 3 mps 745 mmHg 54%
    17:00 +26°C° 0 mm 3 mps 745 mmHg 56%
    18:00 +24°C° 0.3 mm 3 mps 745 mmHg 61%
    19:00 +21°C° 0.3 mm 3 mps 745 mmHg 67%
    20:00 +19°C° 0.3 mm 3 mps 746 mmHg 72%
    21:00 +18°C° 0.3 mm 3 mps 745 mmHg 75%
    22:00 +17°C° 0.3 mm 3 mps 745 mmHg 78%
    23:00 +16°C° 0.3 mm 2 mps 745 mmHg 82%

    Pasado mañana, 25 Mayo, Sábado

    Tiempo Temperatura Precipitaciones Viento Presión Humedad
    00:00 +16°C° 0 mm 2 mps 745 mmHg 82%
    01:00 +15°C° 0 mm 2 mps 745 mmHg 83%
    02:00 +15°C° 0 mm 1 mps 745 mmHg 83%
    03:00 +15°C° 0 mm 1 mps 745 mmHg 83%
    04:00 +15°C° 0 mm 1 mps 745 mmHg 83%
    05:00 +15°C° 0 mm 2 mps 745 mmHg 83%
    06:00 +17°C° 0 mm 2 mps 745 mmHg 77%
    07:00 +19°C° 0 mm 2 mps 745 mmHg 72%
    08:00 +21°C° 0 mm 3 mps 746 mmHg 66%
    09:00 +22°C° 0 mm 3 mps 745 mmHg 60%
    10:00 +24°C° 0 mm 3 mps 745 mmHg 55%
    11:00 +26°C° 0 mm 3 mps 745 mmHg 49%
    12:00 +26°C° 0 mm 3 mps 745 mmHg 48%
    13:00 +27°C° 0 mm 4 mps 745 mmHg 47%
    14:00 +27°C° 0 mm 4 mps 745 mmHg 45%
    15:00 +27°C° 0 mm 4 mps 744 mmHg 48%
    16:00 +26°C° 0 mm 4 mps 744 mmHg 51%
    17:00 +26°C° 0 mm 3 mps 744 mmHg 54%
    18:00 +24°C° 0.4 mm 3 mps 744 mmHg 63%
    19:00 +21°C° 0.4 mm 3 mps 744 mmHg 71%
    20:00 +19°C° 0.4 mm 3 mps 744 mmHg 80%
    21:00 +19°C° 0 mm 3 mps 745 mmHg 83%
    22:00 +18°C° 0 mm 3 mps 745 mmHg 87%
    23:00 +17°C° 0 mm 3 mps 745 mmHg 91%

    26 Mayo, Domingo

    Tiempo Temperatura Precipitaciones Viento Presión Humedad
    00:00 +17°C° 0 mm 3 mps 745 mmHg 92%
    01:00 +16°C° 0 mm 3 mps 745 mmHg 93%
    02:00 +16°C° 0 mm 3 mps 745 mmHg 94%
    03:00 +16°C° 0 mm 3 mps 746 mmHg 94%
    04:00 +15°C° 0 mm 4 mps 746 mmHg 94%
    05:00 +15°C° 0 mm 4 mps 746 mmHg 94%
    06:00 +17°C° 0 mm 4 mps 746 mmHg 87%
    07:00 +19°C° 0 mm 5 mps 747 mmHg 79%
    08:00 +20°C° 0 mm 5 mps 747 mmHg 72%
    09:00 +21°C° 0 mm 4 mps 747 mmHg 65%
    10:00 +23°C° 0 mm 4 mps 748 mmHg 57%
    11:00 +25°C° 0 mm 4 mps 748 mmHg 50%
    12:00 +25°C° 0 mm 4 mps 748 mmHg 50%
    13:00 +26°C° 0 mm 4 mps 748 mmHg 50%
    14:00 +26°C° 0 mm 5 mps 748 mmHg 50%
    15:00 +26°C° 0 mm 4 mps 748 mmHg 52%
    16:00 +26°C° 0 mm 4 mps 748 mmHg 53%
    17:00 +26°C° 0 mm 4 mps 748 mmHg 54%
    18:00 +24°C° 0 mm 3 mps 748 mmHg 60%
    19:00 +23°C° 0 mm 2 mps 748 mmHg 65%
    20:00 +20°C° 0 mm 2 mps 748 mmHg 70%
    21:00 +19°C° 0 mm 2 mps 748 mmHg 70%
    22:00 +19°C° 0 mm 2 mps 748 mmHg 70%
    23:00 +18°C° 0 mm 3 mps 748 mmHg 70%

    27 Mayo, Lunes

    Tiempo Temperatura Precipitaciones Viento Presión Humedad
    00:00 +18°C° 0.4 mm 3 mps 748 mmHg 74%
    01:00 +18°C° 0.4 mm 3 mps 748 mmHg 78%
    02:00 +17°C° 0.4 mm 3 mps 748 mmHg 82%
    03:00 +17°C° 0.2 mm 3 mps 748 mmHg 85%
    04:00 +16°C° 0.2 mm 3 mps 749 mmHg 89%
    05:00 +15°C° 0.2 mm 4 mps 749 mmHg 92%
    06:00 +17°C° 0 mm 4 mps 750 mmHg 83%
    07:00 +18°C° 0 mm 4 mps 750 mmHg 75%
    08:00 +19°C° 0 mm 4 mps 751 mmHg 66%
    09:00 +20°C° 0 mm 4 mps 751 mmHg 60%
    10:00 +21°C° 0 mm 4 mps 751 mmHg 54%
    11:00 +22°C° 0 mm 3 mps 751 mmHg 49%
    12:00 +24°C° 0 mm 3 mps 751 mmHg 48%
    13:00 +24°C° 0 mm 3 mps 751 mmHg 47%
    14:00 +25°C° 0 mm 2 mps 751 mmHg 46%
    15:00 +25°C° 0 mm 2 mps 751 mmHg 46%
    16:00 +25°C° 0 mm 1 mps 751 mmHg 47%
    17:00 +25°C° 0 mm 1 mps 751 mmHg 47%
    18:00 +23°C° 0 mm 1 mps 751 mmHg 52%
    19:00 +21°C° 0 mm 2 mps 751 mmHg 58%
    20:00 +19°C° 0 mm 2 mps 751 mmHg 63%
    21:00 +19°C° 0 mm 3 mps 751 mmHg 64%
    22:00 +18°C° 0 mm 3 mps 751 mmHg 66%
    23:00 +17°C° 0 mm 3 mps 752 mmHg 67%

    28 Mayo, Martes

    Tiempo Temperatura Precipitaciones Viento Presión Humedad
    00:00 +17°C° 0 mm 3 mps 751 mmHg 69%
    01:00 +17°C° 0 mm 4 mps 751 mmHg 71%
    02:00 +15°C° 0 mm 4 mps 751 mmHg 73%
    03:00 +15°C° 0 mm 4 mps 751 mmHg 77%
    04:00 +15°C° 0 mm 4 mps 751 mmHg 81%
    05:00 +15°C° 0 mm 4 mps 751 mmHg 86%
    06:00 +18°C° 0 mm 4 mps 751 mmHg 80%
    07:00 +20°C° 0 mm 5 mps 751 mmHg 74%
    08:00 +22°C° 0 mm 6 mps 751 mmHg 68%
    09:00 +23°C° 0 mm 6 mps 751 mmHg 61%
    10:00 +26°C° 0 mm 6 mps 750 mmHg 54%
    11:00 +27°C° 0 mm 7 mps 750 mmHg 47%
    12:00 +28°C° 0 mm 7 mps 750 mmHg 45%
    13:00 +29°C° 0 mm 7 mps 749 mmHg 43%
    14:00 +29°C° 0 mm 8 mps 749 mmHg 41%
    15:00 +29°C° 0 mm 7 mps 748 mmHg 42%
    16:00 +28°C° 0 mm 6 mps 748 mmHg 44%
    17:00 +28°C° 0 mm 6 mps 748 mmHg 45%
    18:00 +26°C° 0 mm 5 mps 748 mmHg 48%
    19:00 +23°C° 0 mm 5 mps 748 mmHg 51%
    20:00 +21°C° 0 mm 4 mps 748 mmHg 55%
    21:00 +20°C° 0.1 mm 4 mps 748 mmHg 60%
    22:00 +19°C° 0.1 mm 4 mps 748 mmHg 65%
    23:00 +18°C° 0.1 mm 3 mps 748 mmHg 70%
    Mostrar más